Current weather by "City, St" or "zip code"  
 

Current Conditions: San Diego, Brown Field Municipal Airport, CA

Overcast


68.0 F

Last Updated on Oct 24 2020, 10:53 am PDT
Humidity: 68%
Wind Speed: 4.6 mph
Barometer 30.01 in
Dewpoint: 57.0 F
Visibility: 10.00 mi
Precip: --
Heat Index: NA
Wind Chill: NA
Current conditions at:

San Diego, Brown Field Municipal Airport, CA (KSDM)

Lat: 32.57528 Lon: 116.99306

Local Radar Image active severe weather and emergency alerts image image weather storm and storm spotter reports image weather observation monitoring service image
Local
Radar
Active
Alerts
Storm Reports Obs
Monitoring

Sign-up For Email & Text Message Weather Alert Notification Services



Advertise Here

Observation History for San Diego, Brown Field Municipal Airport, CA


Time Wind
(mph)
Vis
(mi)
Weather Precip (in) Temperature (F) Relative
Humidity
Wind
Chill
(F)
Heat
Index
(F)
Pressure
Air Dwpt altimeter
(in)
sea level
(mb)
Rmks
10:53 am PDT 4.6 10.00 Overcast -- 68.0 57.0 68% NA NA 30.01 1016.0
9:53 am PDT N 0.0 9.00 Overcast -- 68.0 57.0 68% NA NA 30.02 1016.3
8:53 am PDT 3.5 10.00 Overcast -- 67.0 57.9 73% NA NA 30.02 1016.3
7:53 am PDT W 3.5 10.00 Overcast -- 65.0 57.9 78% NA NA 30.01 1016.0
6:53 am PDT N 0.0 10.00 Overcast -- 65.0 57.0 76% NA NA 30.01 1015.8
5:53 am PDT N 0.0 10.00 Overcast -- 65.0 57.0 76% NA NA 30.00 1015.5
4:53 am PDT W 3.5 10.00 Overcast -- 65.0 57.0 76% NA NA 29.99 1015.2
3:53 am PDT W 3.5 10.00 Overcast -- 65.0 55.9 73% NA NA 29.99 1015.1
2:53 am PDT N 0.0 10.00 Overcast -- 65.0 55.9 73% NA NA 30.00 1015.3
1:53 am PDT N 0.0 10.00 Overcast -- 65.0 55.9 73% NA NA 30.00 1015.4
12:53 am PDT W 4.6 10.00 Overcast -- 65.0 57.0 76% NA NA 30.01 1015.7
11:53 pm PDT N 0.0 10.00 Overcast -- 65.0 57.0 76% NA NA 30.01 1015.7
10:53 pm PDT W 4.6 10.00 Overcast -- 65.0 55.9 73% NA NA 30.01 1015.9
9:53 pm PDT W 4.6 10.00 Overcast -- 67.0 55.9 68% NA NA 30.00 1015.5
8:53 pm PDT N 0.0 10.00 Overcast -- 65.0 55.9 73% NA NA 29.99 1015.2
7:53 pm PDT W 4.6 10.00 Mostly Cloudy -- 63.0 55.9 78% 64 NA 29.99 1015.3
6:53 pm PDT W 4.6 10.00 A Few Clouds -- 64.0 55.0 73% NA NA 29.97 1014.6
5:53 pm PDT W 6.9 10.00 A Few Clouds -- 66.0 55.9 70% NA NA 29.97 1014.4
4:53 pm PDT 6.9 10.00 A Few Clouds -- 68.0 55.9 65% NA NA 29.96 1014.2
3:53 pm PDT W 6.9 10.00 Fair -- 71.0 55.9 59% NA NA 29.95 1013.9
2:53 pm PDT 6.9 10.00 Fair -- 72.0 55.0 55% NA NA 29.95 1013.9
1:53 pm PDT W 8.1 10.00 Fair -- 73.0 55.0 53% NA NA 29.96 1014.1
12:53 pm PDT W 8.1 10.00 Fair -- 72.0 55.0 55% NA NA 29.97 1014.5
11:53 am PDT W 10.4 8.00 Partly Cloudy -- 72.0 55.0 55% NA NA 29.98 1014.9

Regional Weather Observation


San Diego, Montgomery Field, CA (KMYF)

Overcast
69.0 F

San Diego International Airport, CA (KSAN)

Overcast
71.0 F

San Diego, North Island, Naval Air Station, CA (KNZY)

Overcast
71.0 F

San Diego, Brown Field Municipal Airport, CA (KSDM)

Overcast
68.0 F

Imperial Beach Naval Outlying Field - Ream Field, CA (KNRS)

Overcast
NULL F

Gillespie Field Airport, CA (KSEE)

Overcast
70.0 F